Regional Weather Roundup
Issued by NWS

Home | Current Version | Previous Version | Graphics & Text | Print | Product List | Glossary Off
Versions: 1 2 3 4 5 6 7 8 9 10 11 12 13 14 15 16 17 18 19 20 21 22 23 24 25 26 27 28 29 30 31 32 33 34 35 36 37 38 39 40 41 42 43 44 45 46 47 48 49 50

000
ASUS43 KDMX 220207
RWRIA

WEATHER ROUNDUP FOR IOWA
NATIONAL WEATHER SERVICE DES MOINES IA
900 PM CDT THU AUG 21 2014

NOTE: "FAIR" INDICATES FEW OR NO CLOUDS BELOW 12,000 FEET WITH NO
SIGNIFICANT WEATHER AND/OR OBSTRUCTIONS TO VISIBILITY.

* - THESE STATIONS ARE NOT NWS STATIONS...THUS NOT UNDER NWS
QUALITY CONTROL.  THEY ALSO DO NOT REPORT WEATHER SUCH
AS PRECIPITATION OR FOG.

IAZ001>003-012>014-020>022-031>034-043>046-220300-
   NORTHWEST IOWA

CITY           SKY/WX    TMP DP  RH WIND       PRES   REMARKS
CARROLL *      CLEAR     75  75 100 S5        29.86R
CHEROKEE *     CLEAR     81  79  94 CALM      29.85R HX  89
DENISON *      CLEAR     77  75  94 SE5       29.84R
LE MARS *      CLEAR     79  77  94 CALM      29.85R HX  83
ORANGE CITY *  MOCLDY    82  75  78 CALM      29.86R HX  89
SHELDON *      CLOUDY    79  75  89 N3        29.86R HX  82
SIOUX CITY     CLEAR     80  77  90 CALM      29.84R HX  87
SPENCER        MOCLDY    79  75  87 S5        29.86R HX  83
STORM LAKE *   CLEAR     77  77 100 S5        29.87R
$$

IAZ055>058-069>071-079>083-090>094-220300-
   SOUTHWEST IOWA

CITY           SKY/WX    TMP DP  RH WIND       PRES   REMARKS
ATLANTIC *     CLEAR     81  77  89 CALM      29.85S HX  88
AUDUBON *      CLEAR     79  75  89 CALM      29.88R HX  82
CLARINDA *     MOCLDY    82  79  89 NE5       29.85S HX  93
COUNCIL BLFS * CLEAR     81  79  94 SE5       29.85R HX  89
CRESTON *      PTCLDY    79  77  94 SE5       29.87S HX  83
HARLAN  *      CLEAR     79  77  94 CALM      29.89R HX  83
LAMONI         MOCLDY    81  76  84 SE5       29.86S HX  87
RED OAK *      CLEAR     81  79  94 N3        29.85S HX  89
SHENANDOAH *   CLEAR     81  79  94 N5        29.84R HX  89
$$

IAZ047>049-059>061-072>074-084-220300-
   CENTRAL IOWA

CITY           SKY/WX    TMP DP  RH WIND       PRES   REMARKS
AMES           CLOUDY    78  76  93 CALM      29.87R HX  81
ANKENY *       CLEAR     79  75  89 CALM      29.85R HX  82
CHARITON *     CLEAR     81  77  89 SE6       29.87R HX  88
DES MOINES     PTCLDY    82  76  81 SE6       29.86R HX  89
GRINNELL*      CLEAR     79  73  83 S7        29.88R HX  82
KNOXVILLE *    CLEAR     81  77  89 SE6       29.85S HX  88
MARSHALLTOWN   CLEAR     78  75  90 S5        29.87R HX  81
PELLA *        PTCLDY    81  77  89 SE5       29.88R HX  88
PERRY *          N/A     77  75  94 CALM      29.87R
$$

IAZ004>006-015-016-023>025-035-036-220300-
   NORTH CENTRAL IOWA

CITY           SKY/WX    TMP DP  RH WIND       PRES   REMARKS
ALGONA *       MOCLDY    79  75  89 S8        29.87R HX  82
CLARION *      CLEAR     77  73  88 S6        29.87R
ESTHERVILLE    MOCLDY    74  69  85 SW6       29.85S
FORT DODGE *   CLEAR     79  73  83 CALM      29.88R HX  82
MASON CITY     CLEAR     76  73  91 S5        29.89R
FOREST CITY *  CLEAR     77  75  94 S6        29.86S
IOWA FALLS *     N/A     77  72  83 S6        29.89R
$$

IAZ007>011-017>019-026>030-037>042-050>054-066-220300-
   NORTHEAST IOWA

CITY           SKY/WX    TMP DP  RH WIND       PRES   REMARKS
CEDAR RAPIDS   CLEAR     76  74  93 S5        29.87R
CHARLES CITY * CLEAR     75  72  88 S6        29.88S
CLINTON *      MOCLDY    77  73  88 S7        29.91S
DECORAH *      PTCLDY    73  72  94 S5        29.88S
DUBUQUE        PTCLDY    71  70  96 NE6       29.92R
MONTICELLO *   CLEAR     73  73 100 NE5       29.89R
OELWEIN *      PTCLDY    73  72  94 S7        29.89S
WATERLOO       CLEAR     78  73  84 S6        29.86S HX  81
$$

IAZ064-065-067-068-078-220300-
   EAST CENTRAL IOWA

CITY           SKY/WX    TMP DP  RH WIND       PRES   REMARKS
DAVENPORT      MOCLDY    76  74  93 E3        29.90R
IOWA CITY      PTCLDY    76  76 100 SE3       29.88S FOG
MT. PLEASANT * CLEAR     79  75  89 CALM      29.88R HX  82
MUSCATINE *    CLOUDY    81  75  83 SE3       29.87F HX  86
QUAD CITIES    MOCLDY    77  73  87 CALM      29.88R
$$

IAZ062-063-075>077-085>089-095>099-220300-
   SOUTHEAST IOWA

CITY           SKY/WX    TMP DP  RH WIND       PRES   REMARKS
BURLINGTON     LGT RAIN  77  76  96 CALM      29.88R
FAIRFIELD *    CLEAR     79  75  89 CALM      29.88R HX  82
FORT MADISON * CLEAR     82  79  89 S3        29.89S HX  93
KEOKUK *       CLEAR     81  77  89 S5        29.87S HX  88
OSKALOOSA *      N/A     79  77  94 S5        29.88R HX  83
CENTERVILLE *  CLEAR     77  77 100 E3        29.90R
OTTUMWA        CLEAR     78  75  90 S5        29.87S HX  81
WASHINGTON *   CLEAR     77  77 100 S5        29.88S
$$

ABBREVIATIONS USED IN REMARKS
   TC - TEMPERATURES IN CELSIUS
  WCI - WIND CHILL INDEX
   HX - HEAT INDEX
  VSB - VISIBILITY
$$



USA.gov is the U.S. government's official web portal to all federal, state and local government web resources and services.